Location: Agendoh
(31.0664°N, 8.9343°W)
Time: 09:05:57
(UTC+00:00)

Cosmos 2369 Rocket - Pass Details

Date: 06 December 2021
Orbit: 827 x 854 km, 71.0° (Epoch: 24 January)

Event Time Altitude Azimuth Distance (km) Brightness Sun altitude
Exits shadow 04:34:16 14° 27° (NNE) 2,146 4.5 -34.8°
Drops below altitude 10° 04:35:02 10° 26° (NNE) 2,435 4.8 -34.6°
Sets 04:37:30 0° 24° (NNE) 3,374 5.5 -34.1°
